Scottsbluff, NE

11:34 AM MST on November 15, 2019 (GMT -0700)
Heilig

Weather History for KBFF - September, 2019

Change the Weather History Date:

Saturday, September 7, 2019

  Actual Average Record
Temperature  
Mean Temperature 72 °F -  
Max Temperature 86 °F 83 °F 101 °F (1908)
Min Temperature 59 °F 51 °F 33 °F (1929)
Cooling Degree Days 8    
Growing Degree Days 22 (Base 50)    
Moisture  
Dew Point 53 °F    
Average Humidity 56    
Maximum Humidity 90    
Minimum Humidity 19    
Precipitation  
Precipitation 0.00 in - - ()
Sea Level Pressure  
Sea Level Pressure 29.91 in    
Wind  
Wind Speed 8 mph (NW)    
Max Wind Speed 18 mph    
Max Gust Speed 25 mph    
Visibility 10 miles    
Events      
Averages and records for this station are not official NWS values.
T = Trace of Precipitation, MM = Missing Value Source: NWS Daily Summary

Daily Weather History Graph

Daily Weather History Graph

Search for Another Location

Airport or City:

Astronomy

Sep. 07, 2019 Rise Set
Actual Time 6:26 AM MDT 7:17 PM MDT
Civil Twilight 5:57 AM MDT 7:46 PM MDT
Nautical Twilight 5:24 AM MDT 8:19 PM MDT
Astronomical Twilight 4:49 AM MDT 8:54 PM MDT
Moon 3:40 PM MDT (9/7) 12:15 AM MDT (9/7)
Length of Visible Light 13h 48m
Length of Day
12h 51m
Waxing Gibbous, 66% of the Moon is Illuminated
Sep 7
Waxing Gibbous
Sep 13
Full
Sep 21
Last Quarter
Sep 28
New
Oct 5
First Quarter

Hourly Weather History & Observations

Time (MDT) Temp. Heat Index Dew Point Humidity Pressure Visibility Wind Dir Wind Speed Gust Speed Precip Events Conditions
12:53 AM 63.0 °F - 57.9 °F 84% 29.96 in 10.0 mi SE 6.9 mph - N/A   Clear
1:53 AM 64.9 °F - 57.0 °F 75% 29.93 in 10.0 mi South 11.5 mph - N/A   Scattered Clouds
2:53 AM 63.0 °F - 57.0 °F 81% 29.92 in 10.0 mi SSE 3.5 mph - N/A   Clear
3:53 AM 62.1 °F - 57.9 °F 86% 29.89 in 10.0 mi ESE 4.6 mph - N/A   Clear
4:53 AM 61.0 °F - 57.9 °F 90% 29.89 in 10.0 mi East 5.8 mph - N/A   Clear
5:53 AM 62.1 °F - 57.9 °F 86% 29.90 in 10.0 mi WSW 3.5 mph - N/A   Clear
6:53 AM 60.1 °F - 57.0 °F 90% 29.92 in 10.0 mi Calm Calm - N/A   Clear
7:53 AM 66.9 °F - 57.9 °F 73% 29.93 in 10.0 mi WNW 6.9 mph - N/A   Clear
8:53 AM 71.1 °F - 57.0 °F 61% 29.93 in 10.0 mi WNW 9.2 mph - N/A   Clear
11:53 AM 81.0 °F - 52.0 °F 36% 29.89 in 10.0 mi NW 18.4 mph 25.3 mph N/A   Clear
12:53 PM 82.9 °F - 50.0 °F 32% 29.88 in 10.0 mi WNW 11.5 mph - N/A   Clear
1:53 PM 84.0 °F - 50.0 °F 31% 29.88 in 10.0 mi NW 15.0 mph - N/A   Clear
2:53 PM 84.0 °F - 51.1 °F 32% 29.86 in 10.0 mi West 9.2 mph - N/A   Clear
3:53 PM 84.9 °F - 50.0 °F 30% 29.84 in 10.0 mi Calm Calm - N/A   Clear
4:53 PM 86.0 °F - 50.0 °F 29% 29.83 in 10.0 mi Calm Calm - N/A   Clear
5:53 PM 84.9 °F - 48.9 °F 29% 29.83 in 10.0 mi WNW 3.5 mph - N/A   Clear
6:53 PM 81.0 °F 80.7 °F 55.0 °F 41% 29.85 in 10.0 mi NW 3.5 mph - N/A   Clear
7:53 PM 73.0 °F - 53.1 °F 49% 29.91 in 10.0 mi NNE 15.0 mph - N/A   Clear
8:53 PM 68.0 °F - 53.1 °F 59% 29.96 in 10.0 mi North 17.3 mph - N/A   Clear
9:53 PM 66.0 °F - 48.9 °F 54% 29.97 in 10.0 mi North 16.1 mph - N/A   Clear
10:53 PM 64.0 °F - 48.9 °F 58% 29.98 in 10.0 mi NNW 10.4 mph - N/A   Clear
11:53 PM 60.1 °F - 48.9 °F 67% 30.00 in 10.0 mi WNW 6.9 mph - N/A   Clear